Location: Dob?e?
(49.9411°N, 15.1496°E)
Time: 12:54:36
(UTC+00:00)

NOAA 18 - Visible Passes

Search period start: 23 October 2021 00:00
Search period end: 02 November 2021 00:00
Orbit: 841 x 860 km, 99.0° (Epoch: 23 October)

Date Brightness Start Highest point End Pass type
(mag) Time Alt. Az. Time Alt. Az. Time Alt. Az.
23 Oct 7.2 19:14:14 17° N 19:14:14 17° N 19:15:44 10° N visible
23 Oct 8.0 20:56:14 13° NNW 20:56:14 13° NNW 20:56:45 10° NNW visible
24 Oct 7.3 19:02:14 16° NNE 19:02:14 16° NNE 19:03:36 10° N visible
24 Oct 7.9 20:44:14 13° NNW 20:44:14 13° NNW 20:44:52 10° NNW visible
25 Oct 7.3 18:50:15 15° NNE 18:50:15 15° NNE 18:51:27 10° N visible
25 Oct 7.8 20:32:15 14° NNW 20:32:15 14° NNW 20:32:57 10° NNW visible
26 Oct 7.4 18:38:16 13° NNE 18:38:16 13° NNE 18:39:14 10° N visible
26 Oct 7.8 20:20:16 14° NNW 20:20:16 14° NNW 20:21:01 10° NNW visible
27 Oct 7.4 18:26:16 12° NNE 18:26:16 12° NNE 18:26:57 10° NNE visible
27 Oct 7.7 20:08:16 14° NNW 20:08:16 14° NNW 20:09:03 10° NNW visible
28 Oct 7.5 18:14:16 11° NNE 18:14:16 11° NNE 18:14:31 10° NNE visible
28 Oct 7.7 19:56:16 14° N 19:56:16 14° N 19:57:03 10° N visible
29 Oct 7.6 19:44:17 14° N 19:44:17 14° N 19:45:02 10° N visible
30 Oct 7.6 19:32:17 14° N 19:32:17 14° N 19:33:00 10° N visible
31 Oct 7.6 19:20:17 13° N 19:20:17 13° N 19:20:55 10° N visible
01 Nov 7.6 19:08:16 12° N 19:08:16 12° N 19:08:49 10° N visible
